Location: Unspecified
(0.0000°N, 0.0000°E)
Time: 16:11:36
(UTC+00:00)

CZ-4 DEB - Pass Details

Date: 26 June 2024
Orbit: 785 x 976 km, 99.1° (Epoch: 18 July)

Event Time Altitude Azimuth Distance (km) Brightness Sun altitude
Exits shadow 19:06:04 19° 100° (E) 2,131 ? -14.4°
Maximum altitude 19:07:56 22° 76° (ENE) 1,994 ? -14.9°
Drops below altitude 10° 19:12:27 10° 28° (NNE) 2,716 ? -15.9°
Sets 19:15:29 0° 14° (NNE) 3,656 ? -16.6°
